Location: Mentone
(34.5413°N, 85.5351°W)
Time: 17:06:28
(UTC-05:00)

Vanguard 1 - Visible Passes

Search period start: 23 March 2017 00:00
Search period end: 02 April 2017 00:00
Orbit: 654 x 3830 km, 34.2° (Epoch: 22 March)

Date Brightness Start Highest point End Pass type
(mag) Time Alt. Az. Time Alt. Az. Time Alt. Az.
29 Mar 13.1 05:10:32 10° S 05:16:16 15° SSE 05:20:43 10° ESE visible
30 Mar 12.7 05:29:20 10° SSW 05:37:43 21° SSE 05:43:29 10° ESE visible
31 Mar 12.3 05:49:10 10° SSW 05:59:08 29° SSE 06:05:23 10° E visible
01 Apr 13.3 03:50:55 10° S 03:57:47 14° SSE 04:03:12 10° ESE visible
